Index of /20260414/WXO-DD/model_gdps/15km/12/174
Name Last modified Size Description
Parent Directory -
20260414T12Z_MSC_GDPS_AbsoluteVorticity_IsbL-0200_LatLon0.15_PT174H.grib2 2026-04-14 16:40 1.5M
20260414T12Z_MSC_GDPS_AbsoluteVorticity_IsbL-0250_LatLon0.15_PT174H.grib2 2026-04-14 16:40 1.6M
20260414T12Z_MSC_GDPS_AbsoluteVorticity_IsbL-0500_LatLon0.15_PT174H.grib2 2026-04-14 16:40 1.5M
20260414T12Z_MSC_GDPS_AbsoluteVorticity_IsbL-0700_LatLon0.15_PT174H.grib2 2026-04-14 16:40 1.6M
20260414T12Z_MSC_GDPS_AbsoluteVorticity_IsbL-0850_LatLon0.15_PT174H.grib2 2026-04-14 16:40 1.6M
20260414T12Z_MSC_GDPS_AirTemp-Max_AGL-2m_LatLon0.15_PT174H.grib2 2026-04-14 16:40 751K
20260414T12Z_MSC_GDPS_AirTemp-Min_AGL-2m_LatLon0.15_PT174H.grib2 2026-04-14 16:40 797K
20260414T12Z_MSC_GDPS_AirTemp_AGL-120m_LatLon0.15_PT174H.grib2 2026-04-14 16:40 918K
20260414T12Z_MSC_GDPS_AirTemp_AGL-2m_LatLon0.15_PT174H.grib2 2026-04-14 16:40 1.0M
20260414T12Z_MSC_GDPS_AirTemp_AGL-40m_LatLon0.15_PT174H.grib2 2026-04-14 16:40 823K
20260414T12Z_MSC_GDPS_AirTemp_AGL-80m_LatLon0.15_PT174H.grib2 2026-04-14 16:40 810K
20260414T12Z_MSC_GDPS_AirTemp_IsbL-0001_LatLon0.15_PT174H.grib2 2026-04-14 16:40 702K
20260414T12Z_MSC_GDPS_AirTemp_IsbL-0005_LatLon0.15_PT174H.grib2 2026-04-14 16:40 747K
20260414T12Z_MSC_GDPS_AirTemp_IsbL-0010_LatLon0.15_PT174H.grib2 2026-04-14 16:40 752K
20260414T12Z_MSC_GDPS_AirTemp_IsbL-0020_LatLon0.15_PT174H.grib2 2026-04-14 16:40 699K
20260414T12Z_MSC_GDPS_AirTemp_IsbL-0030_LatLon0.15_PT174H.grib2 2026-04-14 16:40 756K
20260414T12Z_MSC_GDPS_AirTemp_IsbL-0050_LatLon0.15_PT174H.grib2 2026-04-14 16:40 820K
20260414T12Z_MSC_GDPS_AirTemp_IsbL-0100_LatLon0.15_PT174H.grib2 2026-04-14 16:40 1.0M
20260414T12Z_MSC_GDPS_AirTemp_IsbL-0150_LatLon0.15_PT174H.grib2 2026-04-14 16:40 1.0M
20260414T12Z_MSC_GDPS_AirTemp_IsbL-0175_LatLon0.15_PT174H.grib2 2026-04-14 16:40 1.0M
20260414T12Z_MSC_GDPS_AirTemp_IsbL-0200_LatLon0.15_PT174H.grib2 2026-04-14 16:40 1.0M
20260414T12Z_MSC_GDPS_AirTemp_IsbL-0225_LatLon0.15_PT174H.grib2 2026-04-14 16:40 1.0M
20260414T12Z_MSC_GDPS_AirTemp_IsbL-0250_LatLon0.15_PT174H.grib2 2026-04-14 16:40 1.0M
20260414T12Z_MSC_GDPS_AirTemp_IsbL-0275_LatLon0.15_PT174H.grib2 2026-04-14 16:40 1.0M
20260414T12Z_MSC_GDPS_AirTemp_IsbL-0300_LatLon0.15_PT174H.grib2 2026-04-14 16:40 1.0M
20260414T12Z_MSC_GDPS_AirTemp_IsbL-0350_LatLon0.15_PT174H.grib2 2026-04-14 16:40 938K
20260414T12Z_MSC_GDPS_AirTemp_IsbL-0400_LatLon0.15_PT174H.grib2 2026-04-14 16:40 948K
20260414T12Z_MSC_GDPS_AirTemp_IsbL-0450_LatLon0.15_PT174H.grib2 2026-04-14 16:40 971K
20260414T12Z_MSC_GDPS_AirTemp_IsbL-0500_LatLon0.15_PT174H.grib2 2026-04-14 16:40 1.0M
20260414T12Z_MSC_GDPS_AirTemp_IsbL-0550_LatLon0.15_PT174H.grib2 2026-04-14 16:40 813K
20260414T12Z_MSC_GDPS_AirTemp_IsbL-0600_LatLon0.15_PT174H.grib2 2026-04-14 16:40 904K
20260414T12Z_MSC_GDPS_AirTemp_IsbL-0650_LatLon0.15_PT174H.grib2 2026-04-14 16:40 932K
20260414T12Z_MSC_GDPS_AirTemp_IsbL-0700_LatLon0.15_PT174H.grib2 2026-04-14 16:40 968K
20260414T12Z_MSC_GDPS_AirTemp_IsbL-0750_LatLon0.15_PT174H.grib2 2026-04-14 16:40 1.0M
20260414T12Z_MSC_GDPS_AirTemp_IsbL-0800_LatLon0.15_PT174H.grib2 2026-04-14 16:40 1.1M
20260414T12Z_MSC_GDPS_AirTemp_IsbL-0850_LatLon0.15_PT174H.grib2 2026-04-14 16:40 1.1M
20260414T12Z_MSC_GDPS_AirTemp_IsbL-0875_LatLon0.15_PT174H.grib2 2026-04-14 16:40 1.2M
20260414T12Z_MSC_GDPS_AirTemp_IsbL-0900_LatLon0.15_PT174H.grib2 2026-04-14 16:40 1.2M
20260414T12Z_MSC_GDPS_AirTemp_IsbL-0925_LatLon0.15_PT174H.grib2 2026-04-14 16:40 1.1M
20260414T12Z_MSC_GDPS_AirTemp_IsbL-0950_LatLon0.15_PT174H.grib2 2026-04-14 16:40 1.2M
20260414T12Z_MSC_GDPS_AirTemp_IsbL-0970_LatLon0.15_PT174H.grib2 2026-04-14 16:40 1.2M
20260414T12Z_MSC_GDPS_AirTemp_IsbL-0985_LatLon0.15_PT174H.grib2 2026-04-14 16:40 1.1M
20260414T12Z_MSC_GDPS_AirTemp_IsbL-1000_LatLon0.15_PT174H.grib2 2026-04-14 16:40 1.1M
20260414T12Z_MSC_GDPS_AirTemp_IsbL-1015_LatLon0.15_PT174H.grib2 2026-04-14 16:40 1.1M
20260414T12Z_MSC_GDPS_Albedo_Sfc_LatLon0.15_PT174H.grib2 2026-04-14 16:40 250K
20260414T12Z_MSC_GDPS_CAPE_Sfc_LatLon0.15_PT174H.grib2 2026-04-14 16:40 3.7M
20260414T12Z_MSC_GDPS_CIN_Sfc_LatLon0.15_PT174H.grib2 2026-04-14 16:40 2.8M
20260414T12Z_MSC_GDPS_CloudWater_EAtm_LatLon0.15_PT174H.grib2 2026-04-14 16:40 535K
20260414T12Z_MSC_GDPS_ConvectivePrecip-Accum_Sfc_LatLon0.15_PT174H.grib2 2026-04-14 16:40 3.8M
20260414T12Z_MSC_GDPS_DewPointDepression_AGL-2m_LatLon0.15_PT174H.grib2 2026-04-14 16:40 761K
20260414T12Z_MSC_GDPS_DewPointDepression_IsbL-0010_LatLon0.15_PT174H.grib2 2026-04-14 16:40 21K
20260414T12Z_MSC_GDPS_DewPointDepression_IsbL-0020_LatLon0.15_PT174H.grib2 2026-04-14 16:40 59K
20260414T12Z_MSC_GDPS_DewPointDepression_IsbL-0030_LatLon0.15_PT174H.grib2 2026-04-14 16:40 76K
20260414T12Z_MSC_GDPS_DewPointDepression_IsbL-0050_LatLon0.15_PT174H.grib2 2026-04-14 16:40 354K
20260414T12Z_MSC_GDPS_DewPointDepression_IsbL-0100_LatLon0.15_PT174H.grib2 2026-04-14 16:40 382K
20260414T12Z_MSC_GDPS_DewPointDepression_IsbL-0150_LatLon0.15_PT174H.grib2 2026-04-14 16:40 474K
20260414T12Z_MSC_GDPS_DewPointDepression_IsbL-0175_LatLon0.15_PT174H.grib2 2026-04-14 16:40 546K
20260414T12Z_MSC_GDPS_DewPointDepression_IsbL-0200_LatLon0.15_PT174H.grib2 2026-04-14 16:40 651K
20260414T12Z_MSC_GDPS_DewPointDepression_IsbL-0225_LatLon0.15_PT174H.grib2 2026-04-14 16:40 767K
20260414T12Z_MSC_GDPS_DewPointDepression_IsbL-0250_LatLon0.15_PT174H.grib2 2026-04-14 16:40 855K
20260414T12Z_MSC_GDPS_DewPointDepression_IsbL-0275_LatLon0.15_PT174H.grib2 2026-04-14 16:40 874K
20260414T12Z_MSC_GDPS_DewPointDepression_IsbL-0300_LatLon0.15_PT174H.grib2 2026-04-14 16:40 923K
20260414T12Z_MSC_GDPS_DewPointDepression_IsbL-0350_LatLon0.15_PT174H.grib2 2026-04-14 16:40 955K
20260414T12Z_MSC_GDPS_DewPointDepression_IsbL-0400_LatLon0.15_PT174H.grib2 2026-04-14 16:40 1.0M
20260414T12Z_MSC_GDPS_DewPointDepression_IsbL-0450_LatLon0.15_PT174H.grib2 2026-04-14 16:40 1.0M
20260414T12Z_MSC_GDPS_DewPointDepression_IsbL-0500_LatLon0.15_PT174H.grib2 2026-04-14 16:40 1.0M
20260414T12Z_MSC_GDPS_DewPointDepression_IsbL-0550_LatLon0.15_PT174H.grib2 2026-04-14 16:40 1.0M
20260414T12Z_MSC_GDPS_DewPointDepression_IsbL-0600_LatLon0.15_PT174H.grib2 2026-04-14 16:40 1.1M
20260414T12Z_MSC_GDPS_DewPointDepression_IsbL-0650_LatLon0.15_PT174H.grib2 2026-04-14 16:40 1.1M
20260414T12Z_MSC_GDPS_DewPointDepression_IsbL-0700_LatLon0.15_PT174H.grib2 2026-04-14 16:40 1.1M
20260414T12Z_MSC_GDPS_DewPointDepression_IsbL-0750_LatLon0.15_PT174H.grib2 2026-04-14 16:40 1.1M
20260414T12Z_MSC_GDPS_DewPointDepression_IsbL-0800_LatLon0.15_PT174H.grib2 2026-04-14 16:40 1.2M
20260414T12Z_MSC_GDPS_DewPointDepression_IsbL-0850_LatLon0.15_PT174H.grib2 2026-04-14 16:40 1.2M
20260414T12Z_MSC_GDPS_DewPointDepression_IsbL-0875_LatLon0.15_PT174H.grib2 2026-04-14 16:40 1.1M
20260414T12Z_MSC_GDPS_DewPointDepression_IsbL-0900_LatLon0.15_PT174H.grib2 2026-04-14 16:40 1.1M
20260414T12Z_MSC_GDPS_DewPointDepression_IsbL-0925_LatLon0.15_PT174H.grib2 2026-04-14 16:40 1.0M
20260414T12Z_MSC_GDPS_DewPointDepression_IsbL-0950_LatLon0.15_PT174H.grib2 2026-04-14 16:40 1.0M
20260414T12Z_MSC_GDPS_DewPointDepression_IsbL-0970_LatLon0.15_PT174H.grib2 2026-04-14 16:40 1.0M
20260414T12Z_MSC_GDPS_DewPointDepression_IsbL-0985_LatLon0.15_PT174H.grib2 2026-04-14 16:40 1.0M
20260414T12Z_MSC_GDPS_DewPointDepression_IsbL-1000_LatLon0.15_PT174H.grib2 2026-04-14 16:40 1.0M
20260414T12Z_MSC_GDPS_DewPointDepression_IsbL-1015_LatLon0.15_PT174H.grib2 2026-04-14 16:40 916K
20260414T12Z_MSC_GDPS_DewPoint_AGL-2m_LatLon0.15_PT174H.grib2 2026-04-14 16:40 619K
20260414T12Z_MSC_GDPS_DownwardLongwaveRadiationFlux-Accum_Sfc_LatLon0.15_PT174H.grib2 2026-04-14 16:40 642K
20260414T12Z_MSC_GDPS_DownwardShortwaveRadiationFlux-Accum_NTAtm_LatLon0.15_PT174H.grib2 2026-04-14 16:40 256K
20260414T12Z_MSC_GDPS_DownwardShortwaveRadiationFlux-Accum_Sfc_LatLon0.15_PT174H.grib2 2026-04-14 16:40 846K
20260414T12Z_MSC_GDPS_FreezingRain-Accum12h_Sfc_LatLon0.15_PT174H.grib2 2026-04-14 16:40 82K
20260414T12Z_MSC_GDPS_FreezingRain-Accum24h_Sfc_LatLon0.15_PT174H.grib2 2026-04-14 16:40 121K
20260414T12Z_MSC_GDPS_FreezingRain-Accum6h_Sfc_LatLon0.15_PT174H.grib2 2026-04-14 16:40 62K
20260414T12Z_MSC_GDPS_FreezingRain-Accum_Sfc_LatLon0.15_PT174H.grib2 2026-04-14 16:40 359K
20260414T12Z_MSC_GDPS_GeopotentialHeight_IsbL-0001_LatLon0.15_PT174H.grib2 2026-04-14 16:40 397K
20260414T12Z_MSC_GDPS_GeopotentialHeight_IsbL-0005_LatLon0.15_PT174H.grib2 2026-04-14 16:40 503K
20260414T12Z_MSC_GDPS_GeopotentialHeight_IsbL-0010_LatLon0.15_PT174H.grib2 2026-04-14 16:40 435K
20260414T12Z_MSC_GDPS_GeopotentialHeight_IsbL-0020_LatLon0.15_PT174H.grib2 2026-04-14 16:40 579K
20260414T12Z_MSC_GDPS_GeopotentialHeight_IsbL-0030_LatLon0.15_PT174H.grib2 2026-04-14 16:40 588K
20260414T12Z_MSC_GDPS_GeopotentialHeight_IsbL-0050_LatLon0.15_PT174H.grib2 2026-04-14 16:40 590K
20260414T12Z_MSC_GDPS_GeopotentialHeight_IsbL-0100_LatLon0.15_PT174H.grib2 2026-04-14 16:40 629K
20260414T12Z_MSC_GDPS_GeopotentialHeight_IsbL-0150_LatLon0.15_PT174H.grib2 2026-04-14 16:40 646K
20260414T12Z_MSC_GDPS_GeopotentialHeight_IsbL-0175_LatLon0.15_PT174H.grib2 2026-04-14 16:40 651K
20260414T12Z_MSC_GDPS_GeopotentialHeight_IsbL-0200_LatLon0.15_PT174H.grib2 2026-04-14 16:40 655K
20260414T12Z_MSC_GDPS_GeopotentialHeight_IsbL-0225_LatLon0.15_PT174H.grib2 2026-04-14 16:40 658K
20260414T12Z_MSC_GDPS_GeopotentialHeight_IsbL-0250_LatLon0.15_PT174H.grib2 2026-04-14 16:40 660K
20260414T12Z_MSC_GDPS_GeopotentialHeight_IsbL-0275_LatLon0.15_PT174H.grib2 2026-04-14 16:40 657K
20260414T12Z_MSC_GDPS_GeopotentialHeight_IsbL-0300_LatLon0.15_PT174H.grib2 2026-04-14 16:40 648K
20260414T12Z_MSC_GDPS_GeopotentialHeight_IsbL-0350_LatLon0.15_PT174H.grib2 2026-04-14 16:40 642K
20260414T12Z_MSC_GDPS_GeopotentialHeight_IsbL-0400_LatLon0.15_PT174H.grib2 2026-04-14 16:40 633K
20260414T12Z_MSC_GDPS_GeopotentialHeight_IsbL-0450_LatLon0.15_PT174H.grib2 2026-04-14 16:40 552K
20260414T12Z_MSC_GDPS_GeopotentialHeight_IsbL-0500_LatLon0.15_PT174H.grib2 2026-04-14 16:40 541K
20260414T12Z_MSC_GDPS_GeopotentialHeight_IsbL-0550_LatLon0.15_PT174H.grib2 2026-04-14 16:40 535K
20260414T12Z_MSC_GDPS_GeopotentialHeight_IsbL-0600_LatLon0.15_PT174H.grib2 2026-04-14 16:40 698K
20260414T12Z_MSC_GDPS_GeopotentialHeight_IsbL-0650_LatLon0.15_PT174H.grib2 2026-04-14 16:40 695K
20260414T12Z_MSC_GDPS_GeopotentialHeight_IsbL-0700_LatLon0.15_PT174H.grib2 2026-04-14 16:40 695K
20260414T12Z_MSC_GDPS_GeopotentialHeight_IsbL-0750_LatLon0.15_PT174H.grib2 2026-04-14 16:40 699K
20260414T12Z_MSC_GDPS_GeopotentialHeight_IsbL-0800_LatLon0.15_PT174H.grib2 2026-04-14 16:40 708K
20260414T12Z_MSC_GDPS_GeopotentialHeight_IsbL-0850_LatLon0.15_PT174H.grib2 2026-04-14 16:40 714K
20260414T12Z_MSC_GDPS_GeopotentialHeight_IsbL-0875_LatLon0.15_PT174H.grib2 2026-04-14 16:40 723K
20260414T12Z_MSC_GDPS_GeopotentialHeight_IsbL-0900_LatLon0.15_PT174H.grib2 2026-04-14 16:40 730K
20260414T12Z_MSC_GDPS_GeopotentialHeight_IsbL-0925_LatLon0.15_PT174H.grib2 2026-04-14 16:40 737K
20260414T12Z_MSC_GDPS_GeopotentialHeight_IsbL-0950_LatLon0.15_PT174H.grib2 2026-04-14 16:40 744K
20260414T12Z_MSC_GDPS_GeopotentialHeight_IsbL-0970_LatLon0.15_PT174H.grib2 2026-04-14 16:40 755K
20260414T12Z_MSC_GDPS_GeopotentialHeight_IsbL-0985_LatLon0.15_PT174H.grib2 2026-04-14 16:40 773K
20260414T12Z_MSC_GDPS_GeopotentialHeight_IsbL-1000_LatLon0.15_PT174H.grib2 2026-04-14 16:40 794K
20260414T12Z_MSC_GDPS_GeopotentialHeight_IsbL-1015_LatLon0.15_PT174H.grib2 2026-04-14 16:40 817K
20260414T12Z_MSC_GDPS_Humidex_Sfc_LatLon0.15_PT174H.grib2 2026-04-14 16:40 5.3M
20260414T12Z_MSC_GDPS_IcePellets-Accum12h_Sfc_LatLon0.15_PT174H.grib2 2026-04-14 16:40 19K
20260414T12Z_MSC_GDPS_IcePellets-Accum24h_Sfc_LatLon0.15_PT174H.grib2 2026-04-14 16:40 30K
20260414T12Z_MSC_GDPS_IcePellets-Accum6h_Sfc_LatLon0.15_PT174H.grib2 2026-04-14 16:40 17K
20260414T12Z_MSC_GDPS_IcePellets-Accum_Sfc_LatLon0.15_PT174H.grib2 2026-04-14 16:40 208K
20260414T12Z_MSC_GDPS_KIndex_Sfc_LatLon0.15_PT174H.grib2 2026-04-14 16:40 6.5M
20260414T12Z_MSC_GDPS_LatentHeatNetFlux_Sfc_LatLon0.15_PT174H.grib2 2026-04-14 16:40 514K
20260414T12Z_MSC_GDPS_LiftedIndex-MU-VT_IsbL-0500_LatLon0.15_PT174H.grib2 2026-04-14 16:40 5.4M
20260414T12Z_MSC_GDPS_NetLongwaveRadiationFlux-Accum_Sfc_LatLon0.15_PT174H.grib2 2026-04-14 16:40 1.1M
20260414T12Z_MSC_GDPS_NetShortwaveRadiationFlux-Accum_Sfc_LatLon0.15_PT174H.grib2 2026-04-14 16:40 850K
20260414T12Z_MSC_GDPS_O3MixingRatio_LatLon0.15_PT174H.grib2 2026-04-14 16:57 1.9M
20260414T12Z_MSC_GDPS_O3_EAtm_LatLon0.15_PT174H.grib2 2026-04-14 16:57 2.5M
20260414T12Z_MSC_GDPS_PlanetaryBoundaryLayerHeight_Sfc_LatLon0.15_PT174H.grib2 2026-04-14 16:40 2.4M
20260414T12Z_MSC_GDPS_Precip-Accum12h_Sfc_LatLon0.15_PT174H.grib2 2026-04-14 16:40 4.0M
20260414T12Z_MSC_GDPS_Precip-Accum24h_Sfc_LatLon0.15_PT174H.grib2 2026-04-14 16:40 4.5M
20260414T12Z_MSC_GDPS_Precip-Accum6h_Sfc_LatLon0.15_PT174H.grib2 2026-04-14 16:40 3.8M
20260414T12Z_MSC_GDPS_Precip-Accum_Sfc_LatLon0.15_PT174H.grib2 2026-04-14 16:40 5.3M
20260414T12Z_MSC_GDPS_PrecipRate_Sfc_LatLon0.15_PT174H.grib2 2026-04-14 16:40 3.1M
20260414T12Z_MSC_GDPS_PrecipType-Instant_Sfc_LatLon0.15_PT174H.grib2 2026-04-14 16:40 1.6M
20260414T12Z_MSC_GDPS_Pressure_MSL_LatLon0.15_PT174H.grib2 2026-04-14 16:40 732K
20260414T12Z_MSC_GDPS_Pressure_PVU-1.5_LatLon0.15_PT174H.grib2 2026-04-14 16:40 5.8M
20260414T12Z_MSC_GDPS_Pressure_PVU-1_LatLon0.15_PT174H.grib2 2026-04-14 16:40 6.0M
20260414T12Z_MSC_GDPS_Pressure_PVU-2_LatLon0.15_PT174H.grib2 2026-04-14 16:40 6.0M
20260414T12Z_MSC_GDPS_Pressure_Sfc_LatLon0.15_PT174H.grib2 2026-04-14 16:40 1.1M
20260414T12Z_MSC_GDPS_RadiativeTemp_Sfc_LatLon0.15_PT174H.grib2 2026-04-14 16:40 673K
20260414T12Z_MSC_GDPS_Rain-Accum12h_Sfc_LatLon0.15_PT174H.grib2 2026-04-14 16:40 2.6M
20260414T12Z_MSC_GDPS_Rain-Accum24h_Sfc_LatLon0.15_PT174H.grib2 2026-04-14 16:40 3.0M
20260414T12Z_MSC_GDPS_Rain-Accum6h_Sfc_LatLon0.15_PT174H.grib2 2026-04-14 16:40 2.4M
20260414T12Z_MSC_GDPS_Rain-Accum_Sfc_LatLon0.15_PT174H.grib2 2026-04-14 16:40 4.1M
20260414T12Z_MSC_GDPS_RelativeHumidity_AGL-2m_LatLon0.15_PT174H.grib2 2026-04-14 16:40 1.0M
20260414T12Z_MSC_GDPS_RelativeHumidity_IsbL-0010_LatLon0.15_PT174H.grib2 2026-04-14 16:40 240K
20260414T12Z_MSC_GDPS_RelativeHumidity_IsbL-0020_LatLon0.15_PT174H.grib2 2026-04-14 16:40 350K
20260414T12Z_MSC_GDPS_RelativeHumidity_IsbL-0030_LatLon0.15_PT174H.grib2 2026-04-14 16:40 412K
20260414T12Z_MSC_GDPS_RelativeHumidity_IsbL-0050_LatLon0.15_PT174H.grib2 2026-04-14 16:40 413K
20260414T12Z_MSC_GDPS_RelativeHumidity_IsbL-0100_LatLon0.15_PT174H.grib2 2026-04-14 16:40 487K
20260414T12Z_MSC_GDPS_RelativeHumidity_IsbL-0150_LatLon0.15_PT174H.grib2 2026-04-14 16:40 660K
20260414T12Z_MSC_GDPS_RelativeHumidity_IsbL-0175_LatLon0.15_PT174H.grib2 2026-04-14 16:40 798K
20260414T12Z_MSC_GDPS_RelativeHumidity_IsbL-0200_LatLon0.15_PT174H.grib2 2026-04-14 16:40 713K
20260414T12Z_MSC_GDPS_RelativeHumidity_IsbL-0225_LatLon0.15_PT174H.grib2 2026-04-14 16:40 798K
20260414T12Z_MSC_GDPS_RelativeHumidity_IsbL-0250_LatLon0.15_PT174H.grib2 2026-04-14 16:40 868K
20260414T12Z_MSC_GDPS_RelativeHumidity_IsbL-0275_LatLon0.15_PT174H.grib2 2026-04-14 16:40 888K
20260414T12Z_MSC_GDPS_RelativeHumidity_IsbL-0300_LatLon0.15_PT174H.grib2 2026-04-14 16:40 936K
20260414T12Z_MSC_GDPS_RelativeHumidity_IsbL-0350_LatLon0.15_PT174H.grib2 2026-04-14 16:40 955K
20260414T12Z_MSC_GDPS_RelativeHumidity_IsbL-0400_LatLon0.15_PT174H.grib2 2026-04-14 16:40 1.0M
20260414T12Z_MSC_GDPS_RelativeHumidity_IsbL-0450_LatLon0.15_PT174H.grib2 2026-04-14 16:40 1.0M
20260414T12Z_MSC_GDPS_RelativeHumidity_IsbL-0500_LatLon0.15_PT174H.grib2 2026-04-14 16:40 1.0M
20260414T12Z_MSC_GDPS_RelativeHumidity_IsbL-0550_LatLon0.15_PT174H.grib2 2026-04-14 16:40 1.0M
20260414T12Z_MSC_GDPS_RelativeHumidity_IsbL-0600_LatLon0.15_PT174H.grib2 2026-04-14 16:40 1.0M
20260414T12Z_MSC_GDPS_RelativeHumidity_IsbL-0650_LatLon0.15_PT174H.grib2 2026-04-14 16:40 1.1M
20260414T12Z_MSC_GDPS_RelativeHumidity_IsbL-0700_LatLon0.15_PT174H.grib2 2026-04-14 16:40 1.1M
20260414T12Z_MSC_GDPS_RelativeHumidity_IsbL-0750_LatLon0.15_PT174H.grib2 2026-04-14 16:40 1.2M
20260414T12Z_MSC_GDPS_RelativeHumidity_IsbL-0800_LatLon0.15_PT174H.grib2 2026-04-14 16:40 1.2M
20260414T12Z_MSC_GDPS_RelativeHumidity_IsbL-0850_LatLon0.15_PT174H.grib2 2026-04-14 16:40 1.3M
20260414T12Z_MSC_GDPS_RelativeHumidity_IsbL-0875_LatLon0.15_PT174H.grib2 2026-04-14 16:40 1.3M
20260414T12Z_MSC_GDPS_RelativeHumidity_IsbL-0900_LatLon0.15_PT174H.grib2 2026-04-14 16:40 1.2M
20260414T12Z_MSC_GDPS_RelativeHumidity_IsbL-0925_LatLon0.15_PT174H.grib2 2026-04-14 16:40 1.2M
20260414T12Z_MSC_GDPS_RelativeHumidity_IsbL-0950_LatLon0.15_PT174H.grib2 2026-04-14 16:40 1.2M
20260414T12Z_MSC_GDPS_RelativeHumidity_IsbL-0970_LatLon0.15_PT174H.grib2 2026-04-14 16:40 1.2M
20260414T12Z_MSC_GDPS_RelativeHumidity_IsbL-0985_LatLon0.15_PT174H.grib2 2026-04-14 16:40 1.2M
20260414T12Z_MSC_GDPS_RelativeHumidity_IsbL-1000_LatLon0.15_PT174H.grib2 2026-04-14 16:40 1.1M
20260414T12Z_MSC_GDPS_RelativeHumidity_IsbL-1015_LatLon0.15_PT174H.grib2 2026-04-14 16:40 1.0M
20260414T12Z_MSC_GDPS_RelativeVorticity_IsbL-0200_LatLon0.15_PT174H.grib2 2026-04-14 16:40 1.5M
20260414T12Z_MSC_GDPS_RelativeVorticity_IsbL-0250_LatLon0.15_PT174H.grib2 2026-04-14 16:40 1.6M
20260414T12Z_MSC_GDPS_RelativeVorticity_IsbL-0500_LatLon0.15_PT174H.grib2 2026-04-14 16:40 1.5M
20260414T12Z_MSC_GDPS_RelativeVorticity_IsbL-0700_LatLon0.15_PT174H.grib2 2026-04-14 16:40 1.6M
20260414T12Z_MSC_GDPS_RelativeVorticity_IsbL-0850_LatLon0.15_PT174H.grib2 2026-04-14 16:40 1.6M
20260414T12Z_MSC_GDPS_Runoff-Accum_Sfc_LatLon0.15_PT174H.grib2 2026-04-14 16:40 143K
20260414T12Z_MSC_GDPS_SensibleHeatNetFlux_Sfc_LatLon0.15_PT174H.grib2 2026-04-14 16:40 466K
20260414T12Z_MSC_GDPS_ShowalterIndex_IsbL-0500_LatLon0.15_PT174H.grib2 2026-04-14 16:40 6.2M
20260414T12Z_MSC_GDPS_Snow-Accum12h_Sfc_LatLon0.15_PT174H.grib2 2026-04-14 16:40 1.5M
20260414T12Z_MSC_GDPS_Snow-Accum24h_Sfc_LatLon0.15_PT174H.grib2 2026-04-14 16:40 1.6M
20260414T12Z_MSC_GDPS_Snow-Accum6h_Sfc_LatLon0.15_PT174H.grib2 2026-04-14 16:40 1.3M
20260414T12Z_MSC_GDPS_Snow-Accum_Sfc_LatLon0.15_PT174H.grib2 2026-04-14 16:40 2.1M
20260414T12Z_MSC_GDPS_SnowDensity_Sfc_LatLon0.15_PT174H.grib2 2026-04-14 16:40 273K
20260414T12Z_MSC_GDPS_SnowDepth_Sfc_LatLon0.15_PT174H.grib2 2026-04-14 16:40 1.8M
20260414T12Z_MSC_GDPS_SoilTemp_DBS-0to10cm_LatLon0.15_PT174H.grib2 2026-04-14 16:40 511K
20260414T12Z_MSC_GDPS_SoilTemp_Sfc_LatLon0.15_PT174H.grib2 2026-04-14 16:40 586K
20260414T12Z_MSC_GDPS_SoilVolumetricIceContent_Sfc_LatLon0.15_PT174H.grib2 2026-04-14 16:40 221K
20260414T12Z_MSC_GDPS_SoilVolumetricWaterContent_DBS-0to10cm_LatLon0.15_PT174H.grib2 2026-04-14 16:40 556K
20260414T12Z_MSC_GDPS_SoilVolumetricWaterContent_DBS-0to1cm_LatLon0.15_PT174H.grib2 2026-04-14 16:40 649K
20260414T12Z_MSC_GDPS_SpecificHumidity_AGL-120m_LatLon0.15_PT174H.grib2 2026-04-14 16:40 1.1M
20260414T12Z_MSC_GDPS_SpecificHumidity_AGL-2m_LatLon0.15_PT174H.grib2 2026-04-14 16:40 1.2M
20260414T12Z_MSC_GDPS_SpecificHumidity_AGL-40m_LatLon0.15_PT174H.grib2 2026-04-14 16:40 1.1M
20260414T12Z_MSC_GDPS_SpecificHumidity_AGL-80m_LatLon0.15_PT174H.grib2 2026-04-14 16:40 1.1M
20260414T12Z_MSC_GDPS_SpecificHumidity_IsbL-0001_LatLon0.15_PT174H.grib2 2026-04-14 16:40 1.1M
20260414T12Z_MSC_GDPS_SpecificHumidity_IsbL-0005_LatLon0.15_PT174H.grib2 2026-04-14 16:40 1.0M
20260414T12Z_MSC_GDPS_SpecificHumidity_IsbL-0010_LatLon0.15_PT174H.grib2 2026-04-14 16:40 1.1M
20260414T12Z_MSC_GDPS_SpecificHumidity_IsbL-0020_LatLon0.15_PT174H.grib2 2026-04-14 16:40 1.5M
20260414T12Z_MSC_GDPS_SpecificHumidity_IsbL-0030_LatLon0.15_PT174H.grib2 2026-04-14 16:40 1.5M
20260414T12Z_MSC_GDPS_SpecificHumidity_IsbL-0050_LatLon0.15_PT174H.grib2 2026-04-14 16:40 1.2M
20260414T12Z_MSC_GDPS_SpecificHumidity_IsbL-0100_LatLon0.15_PT174H.grib2 2026-04-14 16:40 1.3M
20260414T12Z_MSC_GDPS_SpecificHumidity_IsbL-0150_LatLon0.15_PT174H.grib2 2026-04-14 16:40 1.3M
20260414T12Z_MSC_GDPS_SpecificHumidity_IsbL-0175_LatLon0.15_PT174H.grib2 2026-04-14 16:40 1.3M
20260414T12Z_MSC_GDPS_SpecificHumidity_IsbL-0200_LatLon0.15_PT174H.grib2 2026-04-14 16:40 1.3M
20260414T12Z_MSC_GDPS_SpecificHumidity_IsbL-0225_LatLon0.15_PT174H.grib2 2026-04-14 16:40 1.3M
20260414T12Z_MSC_GDPS_SpecificHumidity_IsbL-0250_LatLon0.15_PT174H.grib2 2026-04-14 16:40 1.4M
20260414T12Z_MSC_GDPS_SpecificHumidity_IsbL-0275_LatLon0.15_PT174H.grib2 2026-04-14 16:40 1.3M
20260414T12Z_MSC_GDPS_SpecificHumidity_IsbL-0300_LatLon0.15_PT174H.grib2 2026-04-14 16:40 1.2M
20260414T12Z_MSC_GDPS_SpecificHumidity_IsbL-0350_LatLon0.15_PT174H.grib2 2026-04-14 16:40 1.5M
20260414T12Z_MSC_GDPS_SpecificHumidity_IsbL-0400_LatLon0.15_PT174H.grib2 2026-04-14 16:40 1.5M
20260414T12Z_MSC_GDPS_SpecificHumidity_IsbL-0450_LatLon0.15_PT174H.grib2 2026-04-14 16:40 1.6M
20260414T12Z_MSC_GDPS_SpecificHumidity_IsbL-0500_LatLon0.15_PT174H.grib2 2026-04-14 16:40 1.4M
20260414T12Z_MSC_GDPS_SpecificHumidity_IsbL-0550_LatLon0.15_PT174H.grib2 2026-04-14 16:40 1.6M
20260414T12Z_MSC_GDPS_SpecificHumidity_IsbL-0600_LatLon0.15_PT174H.grib2 2026-04-14 16:40 1.7M
20260414T12Z_MSC_GDPS_SpecificHumidity_IsbL-0650_LatLon0.15_PT174H.grib2 2026-04-14 16:40 1.5M
20260414T12Z_MSC_GDPS_SpecificHumidity_IsbL-0700_LatLon0.15_PT174H.grib2 2026-04-14 16:40 1.6M
20260414T12Z_MSC_GDPS_SpecificHumidity_IsbL-0750_LatLon0.15_PT174H.grib2 2026-04-14 16:40 1.7M
20260414T12Z_MSC_GDPS_SpecificHumidity_IsbL-0800_LatLon0.15_PT174H.grib2 2026-04-14 16:40 1.8M
20260414T12Z_MSC_GDPS_SpecificHumidity_IsbL-0850_LatLon0.15_PT174H.grib2 2026-04-14 16:40 1.9M
20260414T12Z_MSC_GDPS_SpecificHumidity_IsbL-0875_LatLon0.15_PT174H.grib2 2026-04-14 16:40 1.9M
20260414T12Z_MSC_GDPS_SpecificHumidity_IsbL-0900_LatLon0.15_PT174H.grib2 2026-04-14 16:40 1.6M
20260414T12Z_MSC_GDPS_SpecificHumidity_IsbL-0925_LatLon0.15_PT174H.grib2 2026-04-14 16:40 1.6M
20260414T12Z_MSC_GDPS_SpecificHumidity_IsbL-0950_LatLon0.15_PT174H.grib2 2026-04-14 16:40 1.6M
20260414T12Z_MSC_GDPS_SpecificHumidity_IsbL-0970_LatLon0.15_PT174H.grib2 2026-04-14 16:40 1.5M
20260414T12Z_MSC_GDPS_SpecificHumidity_IsbL-0985_LatLon0.15_PT174H.grib2 2026-04-14 16:40 1.5M
20260414T12Z_MSC_GDPS_SpecificHumidity_IsbL-1000_LatLon0.15_PT174H.grib2 2026-04-14 16:40 1.5M
20260414T12Z_MSC_GDPS_SpecificHumidity_IsbL-1015_LatLon0.15_PT174H.grib2 2026-04-14 16:40 1.4M
20260414T12Z_MSC_GDPS_SpecificHumidity_Sfc_LatLon0.15_PT174H.grib2 2026-04-14 16:40 667K
20260414T12Z_MSC_GDPS_Thickness_IsbL-0850to0700_LatLon0.15_PT174H.grib2 2026-04-14 16:40 473K
20260414T12Z_MSC_GDPS_Thickness_IsbL-1000to0500_LatLon0.15_PT174H.grib2 2026-04-14 16:40 381K
20260414T12Z_MSC_GDPS_Thickness_IsbL-1000to0850_LatLon0.15_PT174H.grib2 2026-04-14 16:40 499K
20260414T12Z_MSC_GDPS_TotalCloudCover_Sfc_LatLon0.15_PT174H.grib2 2026-04-14 16:40 810K
20260414T12Z_MSC_GDPS_TotalTotalsIndex_Sfc_LatLon0.15_PT174H.grib2 2026-04-14 16:40 6.2M
20260414T12Z_MSC_GDPS_UVIndex-ClearSky-Max24h_Sfc_LatLon0.15_PT174H.grib2 2026-04-14 16:57 2.2M
20260414T12Z_MSC_GDPS_UVIndex-ClearSky_Sfc_LatLon0.15_PT174H.grib2 2026-04-14 16:57 1.0M
20260414T12Z_MSC_GDPS_UVIndex-Max24h_Sfc_LatLon0.15_PT174H.grib2 2026-04-14 16:57 3.2M
20260414T12Z_MSC_GDPS_UVIndex_Sfc_LatLon0.15_PT174H.grib2 2026-04-14 16:57 1.5M
20260414T12Z_MSC_GDPS_UpwardLongwaveRadiationFlux_NTAtm_LatLon0.15_PT174H.grib2 2026-04-14 16:40 842K
20260414T12Z_MSC_GDPS_VerticalVelocity_IsbL-0200_LatLon0.15_PT174H.grib2 2026-04-14 16:40 1.2M
20260414T12Z_MSC_GDPS_VerticalVelocity_IsbL-0250_LatLon0.15_PT174H.grib2 2026-04-14 16:40 1.1M
20260414T12Z_MSC_GDPS_VerticalVelocity_IsbL-0500_LatLon0.15_PT174H.grib2 2026-04-14 16:40 1.0M
20260414T12Z_MSC_GDPS_VerticalVelocity_IsbL-0600_LatLon0.15_PT174H.grib2 2026-04-14 16:40 1.1M
20260414T12Z_MSC_GDPS_VerticalVelocity_IsbL-0700_LatLon0.15_PT174H.grib2 2026-04-14 16:40 1.2M
20260414T12Z_MSC_GDPS_VerticalVelocity_IsbL-0850_LatLon0.15_PT174H.grib2 2026-04-14 16:40 1.3M
20260414T12Z_MSC_GDPS_WindChill_Sfc_LatLon0.15_PT174H.grib2 2026-04-14 16:40 5.3M
20260414T12Z_MSC_GDPS_WindDir_AGL-10m_LatLon0.15_PT174H.grib2 2026-04-14 16:40 1.4M
20260414T12Z_MSC_GDPS_WindDir_AGL-120m_LatLon0.15_PT174H.grib2 2026-04-14 16:40 1.4M
20260414T12Z_MSC_GDPS_WindDir_AGL-40m_LatLon0.15_PT174H.grib2 2026-04-14 16:40 1.4M
20260414T12Z_MSC_GDPS_WindDir_AGL-80m_LatLon0.15_PT174H.grib2 2026-04-14 16:40 1.4M
20260414T12Z_MSC_GDPS_WindDir_IsbL-0001_LatLon0.15_PT174H.grib2 2026-04-14 16:40 641K
20260414T12Z_MSC_GDPS_WindDir_IsbL-0005_LatLon0.15_PT174H.grib2 2026-04-14 16:40 789K
20260414T12Z_MSC_GDPS_WindDir_IsbL-0010_LatLon0.15_PT174H.grib2 2026-04-14 16:40 853K
20260414T12Z_MSC_GDPS_WindDir_IsbL-0020_LatLon0.15_PT174H.grib2 2026-04-14 16:40 924K
20260414T12Z_MSC_GDPS_WindDir_IsbL-0030_LatLon0.15_PT174H.grib2 2026-04-14 16:40 892K
20260414T12Z_MSC_GDPS_WindDir_IsbL-0050_LatLon0.15_PT174H.grib2 2026-04-14 16:40 945K
20260414T12Z_MSC_GDPS_WindDir_IsbL-0100_LatLon0.15_PT174H.grib2 2026-04-14 16:40 1.0M
20260414T12Z_MSC_GDPS_WindDir_IsbL-0150_LatLon0.15_PT174H.grib2 2026-04-14 16:40 1.0M
20260414T12Z_MSC_GDPS_WindDir_IsbL-0175_LatLon0.15_PT174H.grib2 2026-04-14 16:40 1.1M
20260414T12Z_MSC_GDPS_WindDir_IsbL-0200_LatLon0.15_PT174H.grib2 2026-04-14 16:40 1.1M
20260414T12Z_MSC_GDPS_WindDir_IsbL-0225_LatLon0.15_PT174H.grib2 2026-04-14 16:40 1.1M
20260414T12Z_MSC_GDPS_WindDir_IsbL-0250_LatLon0.15_PT174H.grib2 2026-04-14 16:40 1.1M
20260414T12Z_MSC_GDPS_WindDir_IsbL-0275_LatLon0.15_PT174H.grib2 2026-04-14 16:40 1.2M
20260414T12Z_MSC_GDPS_WindDir_IsbL-0300_LatLon0.15_PT174H.grib2 2026-04-14 16:40 1.1M
20260414T12Z_MSC_GDPS_WindDir_IsbL-0350_LatLon0.15_PT174H.grib2 2026-04-14 16:40 1.2M
20260414T12Z_MSC_GDPS_WindDir_IsbL-0400_LatLon0.15_PT174H.grib2 2026-04-14 16:40 1.2M
20260414T12Z_MSC_GDPS_WindDir_IsbL-0450_LatLon0.15_PT174H.grib2 2026-04-14 16:40 1.3M
20260414T12Z_MSC_GDPS_WindDir_IsbL-0500_LatLon0.15_PT174H.grib2 2026-04-14 16:40 1.3M
20260414T12Z_MSC_GDPS_WindDir_IsbL-0550_LatLon0.15_PT174H.grib2 2026-04-14 16:40 1.4M
20260414T12Z_MSC_GDPS_WindDir_IsbL-0600_LatLon0.15_PT174H.grib2 2026-04-14 16:40 1.5M
20260414T12Z_MSC_GDPS_WindDir_IsbL-0650_LatLon0.15_PT174H.grib2 2026-04-14 16:40 1.5M
20260414T12Z_MSC_GDPS_WindDir_IsbL-0700_LatLon0.15_PT174H.grib2 2026-04-14 16:40 1.6M
20260414T12Z_MSC_GDPS_WindDir_IsbL-0750_LatLon0.15_PT174H.grib2 2026-04-14 16:40 1.7M
20260414T12Z_MSC_GDPS_WindDir_IsbL-0800_LatLon0.15_PT174H.grib2 2026-04-14 16:40 1.8M
20260414T12Z_MSC_GDPS_WindDir_IsbL-0850_LatLon0.15_PT174H.grib2 2026-04-14 16:40 2.0M
20260414T12Z_MSC_GDPS_WindDir_IsbL-0875_LatLon0.15_PT174H.grib2 2026-04-14 16:40 2.0M
20260414T12Z_MSC_GDPS_WindDir_IsbL-0900_LatLon0.15_PT174H.grib2 2026-04-14 16:40 2.0M
20260414T12Z_MSC_GDPS_WindDir_IsbL-0925_LatLon0.15_PT174H.grib2 2026-04-14 16:40 2.0M
20260414T12Z_MSC_GDPS_WindDir_IsbL-0950_LatLon0.15_PT174H.grib2 2026-04-14 16:40 2.0M
20260414T12Z_MSC_GDPS_WindDir_IsbL-0970_LatLon0.15_PT174H.grib2 2026-04-14 16:40 2.0M
20260414T12Z_MSC_GDPS_WindDir_IsbL-0985_LatLon0.15_PT174H.grib2 2026-04-14 16:40 2.1M
20260414T12Z_MSC_GDPS_WindDir_IsbL-1000_LatLon0.15_PT174H.grib2 2026-04-14 16:40 2.1M
20260414T12Z_MSC_GDPS_WindDir_IsbL-1015_LatLon0.15_PT174H.grib2 2026-04-14 16:40 2.1M
20260414T12Z_MSC_GDPS_WindGust-Max_AGL-10m_LatLon0.15_PT174H.grib2 2026-04-14 16:40 2.2M
20260414T12Z_MSC_GDPS_WindGust-Min_AGL-10m_LatLon0.15_PT174H.grib2 2026-04-14 16:40 2.2M
20260414T12Z_MSC_GDPS_WindGust_AGL-10m_LatLon0.15_PT174H.grib2 2026-04-14 16:40 2.1M
20260414T12Z_MSC_GDPS_WindSpeed_AGL-10m_LatLon0.15_PT174H.grib2 2026-04-14 16:40 1.1M
20260414T12Z_MSC_GDPS_WindSpeed_AGL-120m_LatLon0.15_PT174H.grib2 2026-04-14 16:40 1.3M
20260414T12Z_MSC_GDPS_WindSpeed_AGL-40m_LatLon0.15_PT174H.grib2 2026-04-14 16:40 1.3M
20260414T12Z_MSC_GDPS_WindSpeed_AGL-80m_LatLon0.15_PT174H.grib2 2026-04-14 16:40 1.3M
20260414T12Z_MSC_GDPS_WindSpeed_IsbL-0001_LatLon0.15_PT174H.grib2 2026-04-14 16:40 632K
20260414T12Z_MSC_GDPS_WindSpeed_IsbL-0005_LatLon0.15_PT174H.grib2 2026-04-14 16:40 606K
20260414T12Z_MSC_GDPS_WindSpeed_IsbL-0010_LatLon0.15_PT174H.grib2 2026-04-14 16:40 619K
20260414T12Z_MSC_GDPS_WindSpeed_IsbL-0020_LatLon0.15_PT174H.grib2 2026-04-14 16:40 852K
20260414T12Z_MSC_GDPS_WindSpeed_IsbL-0030_LatLon0.15_PT174H.grib2 2026-04-14 16:40 851K
20260414T12Z_MSC_GDPS_WindSpeed_IsbL-0050_LatLon0.15_PT174H.grib2 2026-04-14 16:40 1.0M
20260414T12Z_MSC_GDPS_WindSpeed_IsbL-0100_LatLon0.15_PT174H.grib2 2026-04-14 16:40 1.1M
20260414T12Z_MSC_GDPS_WindSpeed_IsbL-0150_LatLon0.15_PT174H.grib2 2026-04-14 16:40 1.0M
20260414T12Z_MSC_GDPS_WindSpeed_IsbL-0175_LatLon0.15_PT174H.grib2 2026-04-14 16:40 1.0M
20260414T12Z_MSC_GDPS_WindSpeed_IsbL-0200_LatLon0.15_PT174H.grib2 2026-04-14 16:40 1.1M
20260414T12Z_MSC_GDPS_WindSpeed_IsbL-0225_LatLon0.15_PT174H.grib2 2026-04-14 16:40 1.1M
20260414T12Z_MSC_GDPS_WindSpeed_IsbL-0250_LatLon0.15_PT174H.grib2 2026-04-14 16:40 1.1M
20260414T12Z_MSC_GDPS_WindSpeed_IsbL-0275_LatLon0.15_PT174H.grib2 2026-04-14 16:40 1.1M
20260414T12Z_MSC_GDPS_WindSpeed_IsbL-0300_LatLon0.15_PT174H.grib2 2026-04-14 16:40 1.1M
20260414T12Z_MSC_GDPS_WindSpeed_IsbL-0350_LatLon0.15_PT174H.grib2 2026-04-14 16:40 1.1M
20260414T12Z_MSC_GDPS_WindSpeed_IsbL-0400_LatLon0.15_PT174H.grib2 2026-04-14 16:40 1.1M
20260414T12Z_MSC_GDPS_WindSpeed_IsbL-0450_LatLon0.15_PT174H.grib2 2026-04-14 16:40 1.1M
20260414T12Z_MSC_GDPS_WindSpeed_IsbL-0500_LatLon0.15_PT174H.grib2 2026-04-14 16:40 1.1M
20260414T12Z_MSC_GDPS_WindSpeed_IsbL-0550_LatLon0.15_PT174H.grib2 2026-04-14 16:40 1.1M
20260414T12Z_MSC_GDPS_WindSpeed_IsbL-0600_LatLon0.15_PT174H.grib2 2026-04-14 16:40 1.4M
20260414T12Z_MSC_GDPS_WindSpeed_IsbL-0650_LatLon0.15_PT174H.grib2 2026-04-14 16:40 1.4M
20260414T12Z_MSC_GDPS_WindSpeed_IsbL-0700_LatLon0.15_PT174H.grib2 2026-04-14 16:40 1.5M
20260414T12Z_MSC_GDPS_WindSpeed_IsbL-0750_LatLon0.15_PT174H.grib2 2026-04-14 16:40 1.6M
20260414T12Z_MSC_GDPS_WindSpeed_IsbL-0800_LatLon0.15_PT174H.grib2 2026-04-14 16:40 1.7M
20260414T12Z_MSC_GDPS_WindSpeed_IsbL-0850_LatLon0.15_PT174H.grib2 2026-04-14 16:40 1.8M
20260414T12Z_MSC_GDPS_WindSpeed_IsbL-0875_LatLon0.15_PT174H.grib2 2026-04-14 16:40 1.8M
20260414T12Z_MSC_GDPS_WindSpeed_IsbL-0900_LatLon0.15_PT174H.grib2 2026-04-14 16:40 1.8M
20260414T12Z_MSC_GDPS_WindSpeed_IsbL-0925_LatLon0.15_PT174H.grib2 2026-04-14 16:40 1.8M
20260414T12Z_MSC_GDPS_WindSpeed_IsbL-0950_LatLon0.15_PT174H.grib2 2026-04-14 16:40 1.9M
20260414T12Z_MSC_GDPS_WindSpeed_IsbL-0970_LatLon0.15_PT174H.grib2 2026-04-14 16:40 1.9M
20260414T12Z_MSC_GDPS_WindSpeed_IsbL-0985_LatLon0.15_PT174H.grib2 2026-04-14 16:40 1.9M
20260414T12Z_MSC_GDPS_WindSpeed_IsbL-1000_LatLon0.15_PT174H.grib2 2026-04-14 16:40 1.9M
20260414T12Z_MSC_GDPS_WindSpeed_IsbL-1015_LatLon0.15_PT174H.grib2 2026-04-14 16:40 1.8M
20260414T12Z_MSC_GDPS_WindU_AGL-10m_LatLon0.15_PT174H.grib2 2026-04-14 16:40 1.3M
20260414T12Z_MSC_GDPS_WindU_AGL-120m_LatLon0.15_PT174H.grib2 2026-04-14 16:40 1.0M
20260414T12Z_MSC_GDPS_WindU_AGL-40m_LatLon0.15_PT174H.grib2 2026-04-14 16:40 1.0M
20260414T12Z_MSC_GDPS_WindU_AGL-80m_LatLon0.15_PT174H.grib2 2026-04-14 16:40 1.0M
20260414T12Z_MSC_GDPS_WindU_IsbL-0001_LatLon0.15_PT174H.grib2 2026-04-14 16:40 631K
20260414T12Z_MSC_GDPS_WindU_IsbL-0005_LatLon0.15_PT174H.grib2 2026-04-14 16:40 681K
20260414T12Z_MSC_GDPS_WindU_IsbL-0010_LatLon0.15_PT174H.grib2 2026-04-14 16:40 695K
20260414T12Z_MSC_GDPS_WindU_IsbL-0020_LatLon0.15_PT174H.grib2 2026-04-14 16:40 731K
20260414T12Z_MSC_GDPS_WindU_IsbL-0030_LatLon0.15_PT174H.grib2 2026-04-14 16:40 731K
20260414T12Z_MSC_GDPS_WindU_IsbL-0050_LatLon0.15_PT174H.grib2 2026-04-14 16:40 703K
20260414T12Z_MSC_GDPS_WindU_IsbL-0100_LatLon0.15_PT174H.grib2 2026-04-14 16:40 935K
20260414T12Z_MSC_GDPS_WindU_IsbL-0150_LatLon0.15_PT174H.grib2 2026-04-14 16:40 1.0M
20260414T12Z_MSC_GDPS_WindU_IsbL-0175_LatLon0.15_PT174H.grib2 2026-04-14 16:40 1.0M
20260414T12Z_MSC_GDPS_WindU_IsbL-0200_LatLon0.15_PT174H.grib2 2026-04-14 16:40 855K
20260414T12Z_MSC_GDPS_WindU_IsbL-0225_LatLon0.15_PT174H.grib2 2026-04-14 16:40 864K
20260414T12Z_MSC_GDPS_WindU_IsbL-0250_LatLon0.15_PT174H.grib2 2026-04-14 16:40 859K
20260414T12Z_MSC_GDPS_WindU_IsbL-0275_LatLon0.15_PT174H.grib2 2026-04-14 16:40 884K
20260414T12Z_MSC_GDPS_WindU_IsbL-0300_LatLon0.15_PT174H.grib2 2026-04-14 16:40 875K
20260414T12Z_MSC_GDPS_WindU_IsbL-0350_LatLon0.15_PT174H.grib2 2026-04-14 16:40 889K
20260414T12Z_MSC_GDPS_WindU_IsbL-0400_LatLon0.15_PT174H.grib2 2026-04-14 16:40 892K
20260414T12Z_MSC_GDPS_WindU_IsbL-0450_LatLon0.15_PT174H.grib2 2026-04-14 16:40 1.1M
20260414T12Z_MSC_GDPS_WindU_IsbL-0500_LatLon0.15_PT174H.grib2 2026-04-14 16:40 1.1M
20260414T12Z_MSC_GDPS_WindU_IsbL-0550_LatLon0.15_PT174H.grib2 2026-04-14 16:40 1.1M
20260414T12Z_MSC_GDPS_WindU_IsbL-0600_LatLon0.15_PT174H.grib2 2026-04-14 16:40 1.1M
20260414T12Z_MSC_GDPS_WindU_IsbL-0650_LatLon0.15_PT174H.grib2 2026-04-14 16:40 1.2M
20260414T12Z_MSC_GDPS_WindU_IsbL-0700_LatLon0.15_PT174H.grib2 2026-04-14 16:40 1.2M
20260414T12Z_MSC_GDPS_WindU_IsbL-0750_LatLon0.15_PT174H.grib2 2026-04-14 16:40 1.3M
20260414T12Z_MSC_GDPS_WindU_IsbL-0800_LatLon0.15_PT174H.grib2 2026-04-14 16:40 1.4M
20260414T12Z_MSC_GDPS_WindU_IsbL-0850_LatLon0.15_PT174H.grib2 2026-04-14 16:40 1.4M
20260414T12Z_MSC_GDPS_WindU_IsbL-0875_LatLon0.15_PT174H.grib2 2026-04-14 16:40 1.5M
20260414T12Z_MSC_GDPS_WindU_IsbL-0900_LatLon0.15_PT174H.grib2 2026-04-14 16:40 1.5M
20260414T12Z_MSC_GDPS_WindU_IsbL-0925_LatLon0.15_PT174H.grib2 2026-04-14 16:40 1.5M
20260414T12Z_MSC_GDPS_WindU_IsbL-0950_LatLon0.15_PT174H.grib2 2026-04-14 16:40 1.4M
20260414T12Z_MSC_GDPS_WindU_IsbL-0970_LatLon0.15_PT174H.grib2 2026-04-14 16:40 1.4M
20260414T12Z_MSC_GDPS_WindU_IsbL-0985_LatLon0.15_PT174H.grib2 2026-04-14 16:40 1.4M
20260414T12Z_MSC_GDPS_WindU_IsbL-1000_LatLon0.15_PT174H.grib2 2026-04-14 16:40 1.4M
20260414T12Z_MSC_GDPS_WindU_IsbL-1015_LatLon0.15_PT174H.grib2 2026-04-14 16:40 1.4M
20260414T12Z_MSC_GDPS_WindV_AGL-10m_LatLon0.15_PT174H.grib2 2026-04-14 16:40 1.6M
20260414T12Z_MSC_GDPS_WindV_AGL-120m_LatLon0.15_PT174H.grib2 2026-04-14 16:40 1.0M
20260414T12Z_MSC_GDPS_WindV_AGL-40m_LatLon0.15_PT174H.grib2 2026-04-14 16:40 1.0M
20260414T12Z_MSC_GDPS_WindV_AGL-80m_LatLon0.15_PT174H.grib2 2026-04-14 16:40 1.0M
20260414T12Z_MSC_GDPS_WindV_IsbL-0001_LatLon0.15_PT174H.grib2 2026-04-14 16:40 689K
20260414T12Z_MSC_GDPS_WindV_IsbL-0005_LatLon0.15_PT174H.grib2 2026-04-14 16:40 845K
20260414T12Z_MSC_GDPS_WindV_IsbL-0010_LatLon0.15_PT174H.grib2 2026-04-14 16:40 873K
20260414T12Z_MSC_GDPS_WindV_IsbL-0020_LatLon0.15_PT174H.grib2 2026-04-14 16:40 928K
20260414T12Z_MSC_GDPS_WindV_IsbL-0030_LatLon0.15_PT174H.grib2 2026-04-14 16:40 930K
20260414T12Z_MSC_GDPS_WindV_IsbL-0050_LatLon0.15_PT174H.grib2 2026-04-14 16:40 1.0M
20260414T12Z_MSC_GDPS_WindV_IsbL-0100_LatLon0.15_PT174H.grib2 2026-04-14 16:40 1.1M
20260414T12Z_MSC_GDPS_WindV_IsbL-0150_LatLon0.15_PT174H.grib2 2026-04-14 16:40 1.0M
20260414T12Z_MSC_GDPS_WindV_IsbL-0175_LatLon0.15_PT174H.grib2 2026-04-14 16:40 1.0M
20260414T12Z_MSC_GDPS_WindV_IsbL-0200_LatLon0.15_PT174H.grib2 2026-04-14 16:40 855K
20260414T12Z_MSC_GDPS_WindV_IsbL-0225_LatLon0.15_PT174H.grib2 2026-04-14 16:40 861K
20260414T12Z_MSC_GDPS_WindV_IsbL-0250_LatLon0.15_PT174H.grib2 2026-04-14 16:40 915K
20260414T12Z_MSC_GDPS_WindV_IsbL-0275_LatLon0.15_PT174H.grib2 2026-04-14 16:40 937K
20260414T12Z_MSC_GDPS_WindV_IsbL-0300_LatLon0.15_PT174H.grib2 2026-04-14 16:40 928K
20260414T12Z_MSC_GDPS_WindV_IsbL-0350_LatLon0.15_PT174H.grib2 2026-04-14 16:40 939K
20260414T12Z_MSC_GDPS_WindV_IsbL-0400_LatLon0.15_PT174H.grib2 2026-04-14 16:40 939K
20260414T12Z_MSC_GDPS_WindV_IsbL-0450_LatLon0.15_PT174H.grib2 2026-04-14 16:40 884K
20260414T12Z_MSC_GDPS_WindV_IsbL-0500_LatLon0.15_PT174H.grib2 2026-04-14 16:40 887K
20260414T12Z_MSC_GDPS_WindV_IsbL-0550_LatLon0.15_PT174H.grib2 2026-04-14 16:40 891K
20260414T12Z_MSC_GDPS_WindV_IsbL-0600_LatLon0.15_PT174H.grib2 2026-04-14 16:40 1.1M
20260414T12Z_MSC_GDPS_WindV_IsbL-0650_LatLon0.15_PT174H.grib2 2026-04-14 16:40 1.2M
20260414T12Z_MSC_GDPS_WindV_IsbL-0700_LatLon0.15_PT174H.grib2 2026-04-14 16:40 1.2M
20260414T12Z_MSC_GDPS_WindV_IsbL-0750_LatLon0.15_PT174H.grib2 2026-04-14 16:40 1.3M
20260414T12Z_MSC_GDPS_WindV_IsbL-0800_LatLon0.15_PT174H.grib2 2026-04-14 16:40 1.3M
20260414T12Z_MSC_GDPS_WindV_IsbL-0850_LatLon0.15_PT174H.grib2 2026-04-14 16:40 1.4M
20260414T12Z_MSC_GDPS_WindV_IsbL-0875_LatLon0.15_PT174H.grib2 2026-04-14 16:40 1.4M
20260414T12Z_MSC_GDPS_WindV_IsbL-0900_LatLon0.15_PT174H.grib2 2026-04-14 16:40 1.4M
20260414T12Z_MSC_GDPS_WindV_IsbL-0925_LatLon0.15_PT174H.grib2 2026-04-14 16:40 1.4M
20260414T12Z_MSC_GDPS_WindV_IsbL-0950_LatLon0.15_PT174H.grib2 2026-04-14 16:40 1.4M
20260414T12Z_MSC_GDPS_WindV_IsbL-0970_LatLon0.15_PT174H.grib2 2026-04-14 16:40 1.4M
20260414T12Z_MSC_GDPS_WindV_IsbL-0985_LatLon0.15_PT174H.grib2 2026-04-14 16:40 1.4M
20260414T12Z_MSC_GDPS_WindV_IsbL-1000_LatLon0.15_PT174H.grib2 2026-04-14 16:40 1.7M
20260414T12Z_MSC_GDPS_WindV_IsbL-1015_LatLon0.15_PT174H.grib2 2026-04-14 16:40 1.7M